Simultaneous Nadir Overpasses (SNOs) Predictions

Prediction of SNOs between NOAA-20 and METOP-C Satellite Orbit:

Table of predicted SNOs for the next 14.0 days since TLE Epoch: 1/23/2022
Index Date (NOAA-20) Time (NOAA-20) Lat,Lon (NOAA-20) SZA (NOAA-20 ) Date (METOP-C) Time (METOP-C) Lat,Lon (METOP-C) SZA (METOP-C ) Distance(km) Time Diff (sec)
1 01/23/2022 04:19:05 72.58, 107.25 92.23 01/23/2022 04:18:49 72.59, 107.21 92.25 1.86 16
2 01/23/2022 05:09:49 -72.59, -85.45 87.77 01/23/2022 05:09:31 -72.59, -85.47 87.77 0.57 18
3 01/23/2022 06:00:35 72.58, 81.88 92.21 01/23/2022 06:00:11 72.57, 81.83 92.21 2.05 24
4 01/23/2022 06:51:19 -72.59,-110.83 87.79 01/23/2022 06:50:53 -72.56,-110.85 87.80 2.72 26
5 01/23/2022 07:42:05 72.58, 56.50 92.20 01/23/2022 07:41:32 72.60, 56.55 92.22 2.66 33
6 01/23/2022 08:32:49 -72.59,-136.20 87.80 01/23/2022 08:32:14 -72.60,-136.13 87.79 2.63 35
7 01/23/2022 09:23:35 72.58, 31.13 92.18 01/23/2022 09:22:54 72.58, 31.17 92.19 1.25 41
8 01/23/2022 10:14:19 -72.59,-161.58 87.82 01/23/2022 10:13:36 -72.57,-161.51 87.83 2.75 43
9 01/23/2022 11:05:05 72.58, 5.75 92.17 01/23/2022 11:04:16 72.55, 5.78 92.15 2.65 49
10 01/23/2022 11:55:48 -72.54, 173.15 87.89 01/23/2022 11:54:58 -72.55, 173.11 87.86 2.29 50
11 01/23/2022 12:46:34 72.53, -19.52 92.09 01/23/2022 12:45:38 72.53, -19.60 92.12 2.83 56
12 01/23/2022 13:37:18 -72.54, 147.78 87.91 01/23/2022 13:36:20 -72.53, 147.73 87.89 1.66 58
13 01/23/2022 14:28:04 72.53, -44.89 92.08 01/23/2022 14:27:00 72.51, -44.98 92.08 3.27 64
14 01/23/2022 15:18:48 -72.54, 122.40 87.92 01/23/2022 15:17:42 -72.51, 122.35 87.93 3.27 66
15 01/23/2022 16:09:34 72.53, -70.27 92.06 01/23/2022 16:08:21 72.54, -70.26 92.09 1.92 73
16 01/23/2022 17:00:18 -72.54, 97.03 87.94 01/23/2022 16:59:03 -72.54, 97.07 87.92 1.52 75
17 01/23/2022 17:50:59 72.27, -95.13 91.77 01/23/2022 17:49:47 72.32, -96.05 91.88 31.36 72
18 01/23/2022 18:41:42 -72.23, 72.26 88.29 01/23/2022 18:40:30 -72.27, 71.18 88.18 36.71 72
19 01/23/2022 19:32:23 71.96,-119.92 91.42 01/23/2022 19:31:15 71.99,-122.02 91.57 72.51 68
20 01/23/2022 20:23:06 -71.93, 47.47 88.64 01/23/2022 20:21:58 -71.94, 45.22 88.48 77.82 68



Historial Predications of SNOs between NOAA-20 and METOP-C
